Weather in Bely Kolodets

Russia / Kaluga Oblast     53°37′21″N   34°56′43″E
temp.,
°C
wind,
m/s
gust,
m/s
humid.,
%
clouds,
%
prec.,
mm/h
press.,
hPa
HPBL,
m
9 may, sun
sun900:00+3nw81698100 9.1 10071041
03:00+2nw71497100 12.6 1011789
06:00+3wnw6129189 0.5 1012807
09:00+5nw7108367 0.6 10141032
12:00+7nnw696954 0.2 10161473
15:00+9nw895684 0.3 10181772
18:00+10nw410608 0.0 10201901
21:00+5wnw357315 0.0 102266
10 may, mon
mon1000:00+3nw311784 0.0 1024198
03:00+2nnw38780 0.0 1026130
06:00+2n26780 0.0 1028136
09:00+9n46550 0.0 1028554
12:00+12n57420 0.0 10271662
15:00+14nne58420 0.0 10261707
18:00+12nne58540 0.0 10261114
21:00+6nne38720 0.0 1027136
11 may, tue
tue1100:00+5nne3127994 0.0 1027233
03:00+6ne4137247 0.0 1026371
06:00+5nne4137955 0.0 1026338
09:00+11ne610668 0.0 1025512
12:00+17ne69605 0.0 1023944
15:00+19ene696494 0.0 10231515
18:00+15e51183100 0.3 1024625
21:00+11ese37963 0.4 1024152
12 may, wed
wed1200:00+8e399535 0.0 1025203
03:00+8ese2690100 0.0 1024210
06:00+7ene3893100 0.9 1024305
09:00+11e4575100 1.0 1023721
12:00+15e575585 0.1 10211718
15:00+13ese486785 0.3 1020758
18:00+13e61076100 0.6 10191052
21:00+10e51293100 1.4 1018471
13 may, thu
thu1300:00+10ese5149299 0.3 1017597
03:00+9se51195100 1.1 1017603
06:00+10se51193100 0.3 1017485
09:00+13sse6108165 0.4 1018976
12:00+16sse697594 0.7 10181143
15:00+18sse586326 1.4 10171490
18:00+17se4876100 0.6 1016616
21:00+13ese3989100 0.8 1016171